Back to catalog

STARLINK-30367

AliveCommunicationsVLEO
NORAD 57791·PAYLOAD·🇺🇸 United States

Launched Sep 4, 2023 from Cape Canaveral Space Force Station

Loading…

Next Passes (next 24 hours)

TLE

FreshSource: CelesTrak SupGP

Epoch: Sep 14, 2026, 14:11 UTC

1 57791C 23134W   26257.59145833 -.00022156  00000+0 -80279-3 0  2575
2 57791  43.0009 207.6454 0001236 266.5958 217.8442 15.27577255    13

Track STARLINK-30367 in real time with AllMySat

Download on the App Store